Location: Newark
(31.5350°N, 35.0986°E)
Time: 04:07:30
(UTC+00:00)

Explorer 7 - Pass Details

Date: 18 October 2019
Orbit: 485 x 680 km, 50.3° (Epoch: 12 November)

Event Time Altitude Azimuth Distance (km) Brightness Sun altitude
Rises 16:38:03 0° 311° (NW) 2,685 11.1 -20.6°
Reaches altitude 10° 16:40:14 10° 309° (NW) 1,822 10.2 -21.1°
Maximum altitude 16:44:22 73° 226° (SW) 603 7.0 -22.0°
Enters shadow 16:45:18 52° 159° (SSE) 722 7.2 -22.2°
Drops below altitude 10° 16:48:47 10° 141° (SE) 1,938 - -22.9°
Sets 16:51:09 0° 139° (SE) 2,873 - -23.4°
